Newcastle Nobbys Observation History
Time Wind Speed Temp Pressure Rel. Hum Rain
04/08:00am SW 12-21 kts 12.7°c n/a 65% 0.0mm
04/07:30am SW 14-23 kts 12.1°c n/a 72% 0.0mm
04/07:00am SW 12-19 kts 12.6°c n/a 65% 0.0mm
04/06:30am WSW 10-19 kts 12.6°c n/a 65% 0.0mm
04/06:00am WSW 8-14 kts 12.4°c n/a 64% 0.0mm
04/05:30am SW 7-15 kts 12.6°c n/a 65% 0.0mm
04/05:00am SW 12-20 kts 12.7°c n/a 68% 0.0mm
04/04:30am WSW 9-15 kts 12.6°c n/a 67% 0.0mm
04/04:00am WSW 8-13 kts 12.3°c n/a 75% 0.0mm
04/03:30am SW 10-19 kts 12.7°c n/a 73% 0.0mm
04/03:00am WSW 10-15 kts 13.4°c n/a 67% 0.0mm
04/02:30am SW 11-21 kts 13.4°c n/a 70% 0.0mm
04/02:00am SW 9-17 kts 13.4°c n/a 69% 0.0mm
04/01:30am WSW 9-14 kts 13.6°c n/a 67% 0.0mm
04/01:00am WSW 9-16 kts 13.9°c n/a 67% 0.0mm
04/12:30am WSW 9-17 kts 14.2°c n/a 67% 0.0mm
04/12:00am SSW 18-27 kts 16.1°c n/a 55% 0.0mm
Time Wind Speed Temp Pressure Rel. Hum Rain
03/11:53pm SSW 13-26 kts 16.2°c n/a 61% 0.0mm
03/11:30pm SSW 13-26 kts 16.1°c n/a 61% 0.0mm
03/11:14pm SSW 20-30 kts 16.2°c n/a 68% 0.0mm
03/11:00pm S 22-29 kts 16.4°c n/a 60% 0.0mm
03/10:30pm S 23-28 kts 16.4°c n/a 58% 0.0mm
03/10:00pm S 22-27 kts 16.5°c n/a 57% 0.0mm
03/09:30pm SSW 20-26 kts 16.4°c n/a 60% 0.0mm
03/09:00pm S 21-27 kts 16.4°c n/a 62% 0.0mm
03/08:30pm S 24-29 kts 16.5°c n/a 67% 0.0mm
03/08:00pm S 22-29 kts 16.4°c n/a 62% 0.0mm
03/07:30pm S 22-29 kts 16.6°c n/a 61% 0.0mm
03/07:00pm S 23-27 kts 16.6°c n/a 61% 0.0mm
03/06:30pm S 22-28 kts 16.9°c n/a 50% 0.0mm
03/06:00pm S 24-29 kts 16.6°c n/a 55% 0.0mm
03/05:30pm S 24-29 kts 16.6°c n/a 53% 0.0mm
03/05:00pm S 23-29 kts 16.7°c n/a 56% 0.0mm
03/04:30pm S 21-27 kts 16.8°c n/a 56% 0.0mm
03/04:00pm S 22-27 kts 16.7°c n/a 53% 0.0mm
03/03:30pm S 20-27 kts 16.9°c n/a 50% 0.0mm
03/03:00pm SSW 16-24 kts 16.9°c n/a 54% 0.0mm
03/02:30pm SSW 17-24 kts 17.2°c n/a 50% 0.0mm
03/02:00pm SSW 18-25 kts 17.2°c n/a 48% 0.0mm
03/01:30pm SSW 15-25 kts 17.4°c n/a 46% 0.0mm
03/01:25pm SSW 15-25 kts 17.2°c n/a 49% 0.0mm
03/01:00pm SW 14-23 kts 17.4°c n/a 46% 0.0mm
03/12:30pm SW 11-16 kts 17.3°c n/a 47% 0.0mm
03/12:00pm SW 9-16 kts 17.9°c n/a 48% 0.0mm
03/11:30am WSW 11-19 kts 17.3°c n/a 46% 0.0mm
03/11:00am WNW 10-16 kts 17.6°c n/a 56% 0.0mm
03/10:30am WNW 14-17 kts 15.6°c n/a 59% 0.0mm
03/10:00am WNW 16-22 kts 14.4°c n/a 61% 0.0mm
03/09:30am WNW 14-19 kts 14.0°c n/a 65% 0.0mm
03/09:00am WNW 14-22 kts 12.7°c n/a 67% 0.6mm
03/08:30am WNW 14-19 kts 12.2°c n/a 70% 0.6mm
03/08:00am WNW 16-22 kts 11.5°c n/a 73% 0.6mm
03/07:30am WNW 15-20 kts 10.6°c n/a 76% 0.6mm
03/07:00am WNW 17-23 kts 10.5°c n/a 76% 0.6mm
03/06:30am WNW 18-24 kts 10.4°c n/a 76% 0.6mm
03/06:00am WNW 19-27 kts 10.6°c n/a 75% 0.6mm
03/05:30am WNW 18-24 kts 10.5°c n/a 75% 0.6mm
03/05:00am WNW 20-26 kts 10.4°c n/a 75% 0.6mm
03/04:30am WNW 17-26 kts 10.4°c n/a 75% 0.6mm
03/04:00am WNW 18-27 kts 10.4°c n/a 74% 0.6mm
03/03:30am WNW 17-22 kts 10.3°c n/a 74% 0.6mm
03/03:00am WNW 14-19 kts 10.1°c n/a 74% 0.6mm
03/02:30am WNW 16-22 kts 10.0°c n/a 75% 0.6mm
03/02:00am WNW 15-20 kts 9.9°c n/a 74% 0.6mm
03/01:30am WNW 15-21 kts 9.8°c n/a 74% 0.6mm
03/01:00am NW 15-21 kts 9.8°c n/a 72% 0.6mm
03/12:30am WNW 14-18 kts 9.8°c n/a 71% 0.6mm
03/12:00am WNW 15-21 kts 9.8°c n/a 70% 0.6mm
Time Wind Speed Temp Pressure Rel. Hum Rain
02/11:30pm WNW 15-21 kts 9.7°c n/a 68% 0.6mm
02/11:00pm WNW 19-27 kts 9.8°c n/a 67% 0.6mm
02/10:30pm NW 17-23 kts 10.0°c n/a 66% 0.6mm
02/10:00pm NW 15-19 kts 10.1°c n/a 68% 0.6mm
02/09:30pm NW 15-20 kts 10.2°c n/a 70% 0.6mm
02/09:00pm NW 16-20 kts 10.5°c n/a 70% 0.6mm
02/08:30pm WNW 16-24 kts 10.8°c n/a 69% 0.6mm
02/08:00pm WNW 16-23 kts 11.0°c n/a 70% 0.6mm
02/07:30pm WNW 18-22 kts 11.1°c n/a 70% 0.6mm
02/07:00pm WNW 17-23 kts 11.2°c n/a 69% 0.6mm
02/06:30pm WNW 21-29 kts 11.5°c n/a 68% 0.6mm
02/06:00pm NW 18-24 kts 12.6°c n/a 63% 0.6mm
02/05:30pm WNW 16-21 kts 14.4°c n/a 53% 0.6mm
02/05:00pm WNW 13-17 kts 14.8°c n/a 53% 0.6mm
02/04:30pm W 13-19 kts 15.4°c n/a 51% 0.6mm
02/04:00pm W 15-21 kts 14.9°c n/a 53% 0.6mm
02/03:30pm W 14-17 kts 14.7°c n/a 55% 0.6mm
02/03:00pm W 12-17 kts 14.5°c n/a 59% 0.6mm
02/02:30pm W 11-17 kts 14.1°c n/a 63% 0.6mm
02/02:00pm WNW 17-23 kts 13.3°c n/a 65% 0.6mm
02/01:47pm WNW 16-29 kts 13.8°c n/a 58% 0.6mm
02/01:30pm WNW 16-22 kts 13.5°c n/a 60% 0.6mm
02/01:00pm WNW 18-27 kts 13.1°c n/a 66% 0.6mm
02/12:30pm WNW 18-25 kts 12.0°c n/a 68% 0.6mm
02/12:00pm WNW 15-21 kts 11.1°c n/a 72% 0.6mm
02/11:30am WNW 12-16 kts 10.6°c n/a 80% 0.6mm
02/11:00am NW 14-18 kts 9.2°c n/a 85% 0.6mm
02/10:30am WNW 14-19 kts 9.4°c n/a 80% 0.0mm
02/10:00am WNW 17-24 kts 10.2°c n/a 71% 0.0mm
02/09:30am WNW 19-24 kts 10.3°c n/a 68% 0.0mm
02/09:00am WNW 19-27 kts 10.4°c n/a 69% 0.0mm
02/08:30am WNW 19-25 kts 9.8°c n/a 71% 0.0mm
02/08:00am WNW 18-23 kts 9.5°c n/a 72% 0.0mm
02/07:30am NW 19-27 kts 9.1°c n/a 74% 0.0mm
02/07:00am NW 20-25 kts 9.0°c n/a 74% 0.0mm
02/06:30am NW 19-27 kts 8.9°c n/a 73% 0.0mm
02/06:00am WNW 18-23 kts 8.8°c n/a 72% 0.0mm
02/05:30am NW 18-24 kts 8.8°c n/a 72% 0.0mm
02/05:00am NW 20-26 kts 9.2°c n/a 72% 0.0mm
02/04:30am NW 20-26 kts 9.3°c n/a 73% 0.0mm
02/04:00am NW 19-26 kts 9.3°c n/a 72% 0.0mm
02/03:30am NW 16-21 kts 9.7°c n/a 71% 0.0mm
02/03:00am NW 16-23 kts 9.7°c n/a 69% 0.0mm
02/02:30am NW 15-21 kts 9.9°c n/a 68% 0.0mm
02/02:00am NW 15-20 kts 10.3°c n/a 67% 0.0mm
02/01:30am WNW 13-19 kts 10.5°c n/a 68% 0.0mm
02/01:00am WNW 11-14 kts 10.8°c n/a 68% 0.0mm
02/12:30am WNW 9-14 kts 11.4°c n/a 66% 0.0mm
02/12:00am NW 10-13 kts 11.7°c n/a 65% 0.0mm